Starlink 3591

operational
NORAD ID: 51870 Int'l Des: 2022-022 Owner: SPXS Country: US Constellation: starlink
LEOCIRCULAR

Starlink 3591について

説明を読み込み中...

リアルタイム位置

3D地球を読み込み中...

次回通過

高度履歴

Altitude vs Time

uPlot chart will show altitude changes over time

軌道要素

1 51870U 22022U 26036.69773072 .00001909 00000-0 13798-3 0 9997
2 51870 53.2185 152.7415 0001336 99.1655 260.9489 15.08843465218339
Epoch: Feb 5, 2026 • Age: 14 hours

現在のステータス

高度 557.2 km
速度 7.58 km/s
衛星直下点 -48.64°S, 152.91°E
打ち上げ日 Mar 3, 2022
運用期間 3.9 years
タイプ internet

技術仕様

分類 Payload
質量 297.00 kg
乾燥質量 275.00 kg
総質量 297.00 kg
長さ 0.20 m
直径 2.80 m
スパン 9.00 m
形状 Box + pan
製造者 SPXS
バスタイプ Starlink
フェーズステータス In Orbit
所有者/国 SPXS/US

大規模コンステレーション

Loading constellations...